EWG1UD EDDL-EGLL

Flight info

Callsign EWG1UD
Flight time 0h 55m
Altitude 18000
Route NETEX6T NETEX Z282 DIBIR L179 ROMIN/N0414F320 L179 SASKI L608 LOGAN LOGAN2H
Aircraft A20N/M-SDE2E3FGHIRWXY/LB1

Departure

Time 2026-05-04 21:55
Airport Düsseldorf Airport (EDDL)

Arrival

Time 2026-05-04 22:50
Airport London Heathrow Airport (EGLL)
Time Latitude Longitude Altitude Speed Heading
2026-05-04 21:32 51.28207 6.76737 127 ft 0 kts 277°
2026-05-04 21:43 51.28207 6.76738 130 ft 1 kts 277°
2026-05-04 21:43 51.28203 6.76776 128 ft 4 kts 285°
2026-05-04 21:44 51.28193 6.76815 125 ft 4 kts 308°
2026-05-04 21:44 51.28175 6.76837 127 ft 3 kts
2026-05-04 21:44 51.28150 6.76832 129 ft 4 kts 11°
2026-05-04 21:44 51.28128 6.76823 129 ft 1 kts 17°
2026-05-04 21:46 51.28127 6.76818 125 ft 0 kts 249°
2026-05-04 21:46 51.28126 6.76813 125 ft 0 kts 249°
2026-05-04 21:46 51.28127 6.76810 125 ft 1 kts 275°
2026-05-04 21:47 51.28131 6.76808 125 ft 1 kts 319°
2026-05-04 21:47 51.28137 6.76816 125 ft 2 kts 33°
2026-05-04 21:47 51.28149 6.76827 128 ft 1 kts 22°
2026-05-04 21:49 51.28150 6.76827 128 ft 1 kts 21°
2026-05-04 21:49 51.28194 6.76840 126 ft 9 kts
2026-05-04 21:49 51.28264 6.76853 130 ft 13 kts
2026-05-04 21:49 51.28320 6.76864 128 ft 6 kts
2026-05-04 21:50 51.28337 6.76868 128 ft 4 kts
2026-05-04 21:50 51.28390 6.76845 124 ft 11 kts 327°
2026-05-04 21:50 51.28442 6.76785 126 ft 5 kts 323°
2026-05-04 21:50 51.28482 6.76776 127 ft 7 kts 19°
2026-05-04 21:51 51.28520 6.76841 124 ft 9 kts 53°
2026-05-04 21:51 51.28563 6.76933 128 ft 12 kts 53°
2026-05-04 21:51 51.28626 6.77064 129 ft 18 kts 52°
2026-05-04 21:51 51.28711 6.77243 129 ft 22 kts 52°
2026-05-04 21:52 51.28807 6.77445 125 ft 19 kts 52°
2026-05-04 21:52 51.28848 6.77528 124 ft 13 kts 52°
2026-05-04 21:52 51.28910 6.77660 128 ft 16 kts 53°
2026-05-04 21:52 51.28983 6.77813 130 ft 18 kts 53°
2026-05-04 21:53 51.29063 6.77982 128 ft 20 kts 52°
2026-05-04 21:53 51.29123 6.78105 133 ft 20 kts 53°
2026-05-04 21:53 51.29213 6.78211 137 ft 14 kts 359°
2026-05-04 21:53 51.29294 6.78148 141 ft 10 kts 321°
2026-05-04 21:54 51.29316 6.78046 142 ft 12 kts 251°
2026-05-04 21:54 51.29293 6.77995 141 ft 6 kts 233°
2026-05-04 21:54 51.29151 6.77696 134 ft 70 kts 232°
2026-05-04 21:54 51.28724 6.76803 131 ft 128 kts 233°
2026-05-04 21:55 51.28097 6.75505 307 ft 160 kts 232°
2026-05-04 21:55 51.27464 6.74078 1177 ft 157 kts 234°
2026-05-04 21:55 51.26879 6.72566 2041 ft 164 kts 242°
2026-05-04 21:55 51.26525 6.70735 2665 ft 183 kts 260°
2026-05-04 21:56 51.26604 6.68616 3293 ft 204 kts 281°
2026-05-04 21:56 51.27247 6.66460 3881 ft 229 kts 307°
2026-05-04 21:56 51.28329 6.64435 4522 ft 251 kts 310°
2026-05-04 21:56 51.29475 6.62191 5244 ft 268 kts 304°
2026-05-04 21:57 51.30477 6.59648 6253 ft 269 kts 298°
2026-05-04 21:57 51.31362 6.57027 7374 ft 269 kts 296°
2026-05-04 21:57 51.32224 6.54300 8177 ft 280 kts 295°
2026-05-04 21:57 51.33052 6.51524 9095 ft 286 kts 294°
2026-05-04 21:58 51.33962 6.48655 10037 ft 291 kts 297°
2026-05-04 21:58 51.34944 6.45802 10879 ft 300 kts 297°
2026-05-04 21:58 51.35942 6.42740 11324 ft 319 kts 290°
2026-05-04 21:58 51.36355 6.39203 11824 ft 332 kts 267°
2026-05-04 21:59 51.35862 6.35547 12410 ft 343 kts 249°
2026-05-04 21:59 51.35303 6.31823 13237 ft 348 kts 265°
2026-05-04 21:59 51.35429 6.27945 14110 ft 352 kts 275°
2026-05-04 21:59 51.35752 6.24053 14903 ft 355 kts 276°
2026-05-04 22:00 51.36034 6.20095 15590 ft 362 kts 275°
2026-05-04 22:00 51.36226 6.16035 16268 ft 367 kts 273°
2026-05-04 22:00 51.36365 6.11944 17114 ft 369 kts 272°
2026-05-04 22:00 51.36482 6.07839 17911 ft 371 kts 271°
2026-05-04 22:01 51.36590 6.03687 18622 ft 375 kts 271°
2026-05-04 22:01 51.36696 5.99499 19275 ft 378 kts 271°
2026-05-04 22:01 51.36803 5.95284 19930 ft 381 kts 270°
2026-05-04 22:01 51.36911 5.91024 20575 ft 385 kts 270°
2026-05-04 22:02 51.37020 5.86728 21214 ft 388 kts 270°
2026-05-04 22:02 51.37129 5.82389 21851 ft 391 kts 270°
2026-05-04 22:02 51.37237 5.78032 22477 ft 395 kts 270°
2026-05-04 22:02 51.37344 5.73610 23100 ft 399 kts 270°
2026-05-04 22:03 51.37446 5.69203 23632 ft 403 kts 270°
2026-05-04 22:03 51.37553 5.64653 24189 ft 405 kts 270°
2026-05-04 22:03 51.37659 5.60138 24730 ft 407 kts 270°
2026-05-04 22:03 51.37763 5.55590 25234 ft 410 kts 270°
2026-05-04 22:04 51.37865 5.51016 25749 ft 413 kts 270°
2026-05-04 22:04 51.37966 5.46419 26245 ft 415 kts 270°
2026-05-04 22:04 51.38066 5.41782 26732 ft 418 kts 270°
2026-05-04 22:04 51.38164 5.37122 27197 ft 420 kts 270°
2026-05-04 22:05 51.38260 5.32437 27654 ft 423 kts 270°
2026-05-04 22:05 51.38356 5.27715 28093 ft 425 kts 269°
2026-05-04 22:05 51.38448 5.22986 28414 ft 431 kts 270°
2026-05-04 22:05 51.38540 5.18237 28780 ft 433 kts 270°
2026-05-04 22:06 51.38633 5.13349 29235 ft 435 kts 270°
2026-05-04 22:06 51.38724 5.08495 29623 ft 437 kts 270°
2026-05-04 22:06 51.38812 5.03672 30010 ft 440 kts 270°
2026-05-04 22:06 51.38901 4.98699 30356 ft 442 kts 270°
2026-05-04 22:07 51.38985 4.93853 30726 ft 443 kts 270°
2026-05-04 22:07 51.39070 4.88838 31095 ft 444 kts 269°
2026-05-04 22:07 51.39152 4.83901 31544 ft 443 kts 269°
2026-05-04 22:07 51.39231 4.79038 31880 ft 441 kts 269°
2026-05-04 22:08 51.39305 4.74167 31959 ft 442 kts 270°
2026-05-04 22:08 51.39452 4.64325 31962 ft 441 kts 270°
2026-05-04 22:09 51.39592 4.54522 31964 ft 441 kts 270°
2026-05-04 22:09 51.39724 4.44702 31967 ft 441 kts 270°
2026-05-04 22:10 51.39847 4.34866 31965 ft 441 kts 270°
2026-05-04 22:10 51.39962 4.25086 31967 ft 441 kts 270°
2026-05-04 22:11 51.40068 4.15361 31963 ft 441 kts 269°
2026-05-04 22:11 51.40177 4.05481 31963 ft 441 kts 270°
2026-05-04 22:12 51.40287 3.95667 31965 ft 441 kts 270°
2026-05-04 22:12 51.40371 3.85843 31965 ft 441 kts 269°
2026-05-04 22:13 51.40440 3.76023 31979 ft 441 kts 270°
2026-05-04 22:13 51.40499 3.66265 31978 ft 441 kts 270°
2026-05-04 22:14 51.40556 3.56400 31984 ft 441 kts 269°
2026-05-04 22:14 51.40604 3.46610 31988 ft 441 kts 269°
2026-05-04 22:15 51.40644 3.36787 31994 ft 441 kts 269°
2026-05-04 22:15 51.40677 3.26991 31996 ft 437 kts 269°
2026-05-04 22:16 51.40704 3.17245 32007 ft 439 kts 270°
2026-05-04 22:16 51.41572 3.07532 32007 ft 442 kts 283°
2026-05-04 22:17 51.43624 2.98297 32012 ft 443 kts 289°
2026-05-04 22:17 51.45791 2.89047 32012 ft 443 kts 288°
2026-05-04 22:18 51.47948 2.79780 32023 ft 444 kts 288°
2026-05-04 22:18 51.49752 2.71999 32022 ft 444 kts 288°
2026-05-04 22:19 51.51885 2.62773 32029 ft 444 kts 288°
2026-05-04 22:19 51.54011 2.53531 32032 ft 444 kts 288°
2026-05-04 22:20 51.56145 2.44215 32028 ft 444 kts 288°
2026-05-04 22:20 51.58264 2.34905 32028 ft 444 kts 288°
2026-05-04 22:21 51.60383 2.25593 32038 ft 443 kts 288°
2026-05-04 22:21 51.62497 2.16274 32033 ft 443 kts 288°
2026-05-04 22:21 51.63549 2.11620 31760 ft 441 kts 288°
2026-05-04 22:22 51.64364 2.08005 31212 ft 443 kts 288°
2026-05-04 22:22 51.65187 2.04338 30433 ft 447 kts 288°
2026-05-04 22:22 51.65555 2.02692 30041 ft 450 kts 288°
2026-05-04 22:23 51.66626 1.97903 28781 ft 457 kts 288°
2026-05-04 22:23 51.67694 1.93117 27975 ft 454 kts 288°
2026-05-04 22:23 51.68732 1.88463 27447 ft 445 kts 288°
2026-05-04 22:23 51.69763 1.83838 27161 ft 431 kts 288°
2026-05-04 22:24 51.70760 1.79353 26753 ft 421 kts 287°
2026-05-04 22:24 51.71739 1.74926 26112 ft 418 kts 288°
2026-05-04 22:24 51.72708 1.70542 25529 ft 414 kts 287°
2026-05-04 22:24 51.73650 1.66188 25047 ft 407 kts 285°
2026-05-04 22:25 51.74271 1.61777 24492 ft 401 kts 276°
2026-05-04 22:25 51.74450 1.57310 23893 ft 397 kts 268°
2026-05-04 22:25 51.74231 1.52901 23287 ft 393 kts 262°
2026-05-04 22:25 51.73939 1.48555 22889 ft 387 kts 263°
2026-05-04 22:26 51.73664 1.44258 22358 ft 384 kts 262°
2026-05-04 22:26 51.73392 1.39985 21772 ft 382 kts 263°
2026-05-04 22:26 51.73117 1.35735 21390 ft 381 kts 263°
2026-05-04 22:26 51.72839 1.31485 20908 ft 381 kts 263°
2026-05-04 22:27 51.72560 1.27235 20375 ft 380 kts 263°
2026-05-04 22:27 51.72280 1.23003 19727 ft 379 kts 262°
2026-05-04 22:27 51.71995 1.18757 18991 ft 381 kts 263°
2026-05-04 22:27 51.71712 1.14537 18555 ft 375 kts 263°
2026-05-04 22:28 51.71432 1.10382 18222 ft 372 kts 262°
2026-05-04 22:28 51.71150 1.06219 17603 ft 375 kts 263°
2026-05-04 22:28 51.70869 1.02090 16993 ft 372 kts 263°
2026-05-04 22:28 51.70587 0.97982 16568 ft 365 kts 263°
2026-05-04 22:29 51.70306 0.93891 16169 ft 359 kts 263°
2026-05-04 22:29 51.70031 0.89921 15960 ft 361 kts 263°
2026-05-04 22:29 51.69750 0.85894 15551 ft 363 kts 263°
2026-05-04 22:29 51.69466 0.81836 14711 ft 365 kts 263°
2026-05-04 22:30 51.69175 0.77710 13743 ft 373 kts 263°
2026-05-04 22:30 51.68883 0.73575 13133 ft 369 kts 263°
2026-05-04 22:30 51.68595 0.69520 12818 ft 358 kts 263°
2026-05-04 22:30 51.68316 0.65592 12405 ft 350 kts 263°
2026-05-04 22:31 51.68039 0.61730 12003 ft 342 kts 263°
2026-05-04 22:31 51.67772 0.58017 11805 ft 323 kts 263°
2026-05-04 22:31 51.67521 0.54551 11616 ft 304 kts 263°
2026-05-04 22:31 51.67276 0.51171 11107 ft 298 kts 263°
2026-05-04 22:32 51.67039 0.47919 10782 ft 293 kts 263°
2026-05-04 22:32 51.66803 0.44689 10535 ft 288 kts 263°
2026-05-04 22:32 51.66567 0.41475 10294 ft 289 kts 263°
2026-05-04 22:32 51.66331 0.38276 10054 ft 286 kts 263°
2026-05-04 22:33 51.66096 0.35091 9794 ft 287 kts 263°
2026-05-04 22:33 51.65861 0.31935 9446 ft 279 kts 263°
2026-05-04 22:33 51.65634 0.28895 9097 ft 269 kts 263°
2026-05-04 22:33 51.65414 0.25961 8761 ft 259 kts 263°
2026-05-04 22:34 51.65200 0.23124 8316 ft 254 kts 263°
2026-05-04 22:34 51.64984 0.20243 8116 ft 270 kts 264°
2026-05-04 22:34 51.64760 0.17282 8053 ft 257 kts 264°
2026-05-04 22:34 51.64554 0.14546 8054 ft 237 kts 265°
2026-05-04 22:35 51.64411 0.11857 8049 ft 247 kts 266°
2026-05-04 22:35 51.64278 0.09167 8047 ft 237 kts 266°
2026-05-04 22:35 51.64146 0.06495 8046 ft 243 kts 266°
2026-05-04 22:35 51.64014 0.03801 8030 ft 240 kts 266°
2026-05-04 22:36 51.63880 0.01123 7773 ft 240 kts 266°
2026-05-04 22:36 51.63743 -0.01527 7603 ft 234 kts 266°
2026-05-04 22:36 51.63613 -0.04165 7401 ft 240 kts 266°
2026-05-04 22:36 51.63483 -0.06826 7201 ft 236 kts 266°
2026-05-04 22:37 51.63351 -0.09437 7059 ft 234 kts 266°
2026-05-04 22:37 51.63218 -0.12014 7046 ft 235 kts 266°
2026-05-04 22:37 51.63084 -0.14642 7047 ft 237 kts 266°
2026-05-04 22:37 51.62949 -0.17276 7048 ft 235 kts 266°
2026-05-04 22:38 51.62815 -0.19902 7049 ft 236 kts 266°
2026-05-04 22:38 51.62681 -0.22548 7048 ft 237 kts 266°
2026-05-04 22:38 51.62546 -0.25201 7048 ft 236 kts 266°
2026-05-04 22:38 51.62413 -0.27821 7048 ft 235 kts 266°
2026-05-04 22:39 51.62280 -0.30445 7051 ft 236 kts 266°
2026-05-04 22:39 51.62145 -0.33081 7049 ft 236 kts 266°
2026-05-04 22:39 51.62009 -0.35707 7048 ft 235 kts 266°
2026-05-04 22:39 51.61867 -0.38339 7047 ft 236 kts 266°
2026-05-04 22:40 51.61720 -0.40963 7050 ft 236 kts 266°
2026-05-04 22:40 51.61572 -0.43597 7047 ft 236 kts 266°
2026-05-04 22:40 51.61424 -0.46226 7048 ft 236 kts 266°
2026-05-04 22:40 51.61276 -0.48855 6958 ft 236 kts 266°
2026-05-04 22:41 51.61131 -0.51482 6729 ft 235 kts 266°
2026-05-04 22:41 51.60983 -0.54113 6446 ft 233 kts 266°
2026-05-04 22:41 51.60836 -0.56673 6146 ft 231 kts 266°
2026-05-04 22:41 51.60686 -0.59257 5776 ft 232 kts 266°
2026-05-04 22:42 51.60537 -0.61832 5494 ft 230 kts 266°
2026-05-04 22:42 51.60387 -0.64381 5222 ft 228 kts 266°
2026-05-04 22:42 51.60237 -0.66902 5029 ft 225 kts 266°
2026-05-04 22:42 51.60090 -0.69363 4997 ft 218 kts 266°
2026-05-04 22:43 51.59945 -0.71775 4981 ft 210 kts 265°
2026-05-04 22:43 51.59806 -0.74012 4921 ft 191 kts 265°
2026-05-04 22:43 51.59609 -0.76060 4573 ft 186 kts 250°
2026-05-04 22:43 51.58778 -0.77637 4134 ft 189 kts 210°
2026-05-04 22:44 51.57483 -0.78051 4031 ft 197 kts 181°
2026-05-04 22:44 51.56123 -0.78079 4000 ft 197 kts 180°
2026-05-04 22:44 51.54751 -0.78113 3996 ft 197 kts 180°
2026-05-04 22:44 51.53401 -0.78146 3904 ft 191 kts 180°
2026-05-04 22:45 51.52074 -0.78185 3549 ft 191 kts 180°
2026-05-04 22:45 51.49549 -0.77509 3007 ft 184 kts 135°
2026-05-04 22:45 51.48775 -0.75872 2998 ft 186 kts 121°
2026-05-04 22:46 51.48132 -0.74085 2997 ft 183 kts 110°
2026-05-04 22:46 51.47797 -0.72132 2989 ft 183 kts 97°
2026-05-04 22:46 51.47691 -0.70122 2800 ft 181 kts 90°
2026-05-04 22:46 51.47679 -0.68144 2553 ft 174 kts 88°
2026-05-04 22:47 51.47684 -0.66300 2320 ft 160 kts 88°
2026-05-04 22:47 51.47690 -0.64602 2110 ft 147 kts 88°
2026-05-04 22:47 51.47695 -0.63135 1938 ft 134 kts 87°
2026-05-04 22:47 51.47700 -0.61705 1765 ft 125 kts 87°
2026-05-04 22:48 51.47696 -0.60288 1580 ft 126 kts 88°
2026-05-04 22:48 51.47715 -0.58915 1434 ft 124 kts 87°
2026-05-04 22:48 51.47699 -0.57519 1235 ft 125 kts 88°
2026-05-04 22:48 51.47699 -0.56139 1086 ft 126 kts 85°
2026-05-04 22:49 51.47704 -0.54737 969 ft 127 kts 88°
2026-05-04 22:49 51.47710 -0.53317 780 ft 126 kts 82°
2026-05-04 22:49 51.47742 -0.51917 577 ft 125 kts 88°
2026-05-04 22:49 51.47744 -0.50522 382 ft 123 kts 87°
2026-05-04 22:50 51.47747 -0.49132 205 ft 126 kts 86°
2026-05-04 22:50 51.47753 -0.47734 96 ft 120 kts 86°
2026-05-04 22:50 51.47759 -0.46622 92 ft 73 kts 88°
2026-05-04 22:50 51.47759 -0.46131 89 ft 15 kts 89°
2026-05-04 22:51 51.47758 -0.45855 87 ft 30 kts 90°
2026-05-04 22:51 51.47760 -0.45578 86 ft 16 kts 91°
2026-05-04 22:51 51.47689 -0.45469 88 ft 14 kts 174°
2026-05-04 22:51 51.47602 -0.45466 86 ft 10 kts 181°
2026-05-04 22:52 51.47537 -0.45461 86 ft 6 kts 161°
2026-05-04 22:52 51.47508 -0.45404 89 ft 8 kts 99°
2026-05-04 22:52 51.47508 -0.45295 87 ft 11 kts 89°
2026-05-04 22:52 51.47509 -0.45152 90 ft 15 kts 89°
2026-05-04 22:53 51.47509 -0.44979 90 ft 15 kts 90°
2026-05-04 22:53 51.47510 -0.44829 87 ft 13 kts 89°
2026-05-04 22:53 51.47510 -0.44685 87 ft 14 kts 90°
2026-05-04 22:53 51.47474 -0.44565 89 ft 14 kts 156°
2026-05-04 22:54 51.47376 -0.44559 86 ft 15 kts 180°
2026-05-04 22:54 51.47271 -0.44559 86 ft 16 kts 180°
2026-05-04 22:54 51.47181 -0.44558 86 ft 9 kts 180°
2026-05-04 22:54 51.47105 -0.44558 86 ft 12 kts 178°
2026-05-04 22:55 51.47054 -0.44556 86 ft 7 kts 180°
2026-05-04 22:55 51.47013 -0.44593 88 ft 6 kts 265°
2026-05-04 22:55 51.47015 -0.44599 88 ft 1 kts 296°
2026-05-04 22:55 51.47037 -0.44635 89 ft 8 kts 289°
2026-05-04 22:56 51.47037 -0.44665 88 ft 3 kts 267°
2026-05-04 22:56 51.47037 -0.44681 87 ft 0 kts 269°